STARLINK F

Last updated on Wed Jul 02 2025 00:02:08 GMT+0000 (Coordinated Universal Time)

1 64599U 25137F 25182.75001157 -.00836655 22761-3 -21412-2 0 9993 2 64599 53.1565 79.6672 0001090 126.0480 151.1921 15.94599873 2055

Satellite not in orbit

STARLINK F